BEIDOU-3 M20 (C42)

Last updated on Mon Jun 22 2026 00:03:31 GMT+0000 (Coordinated Universal Time)

1 44865U 19090B 26172.36393685 -.00000082 00000+0 00000+0 0 9996 2 44865 56.5642 62.6865 0015435 312.5734 231.1952 1.86231494 44293
UTC large
Height (km)
Speed (km/s)
/
Latitude / Longitude
Inclination (degrees)
Orbital Period (minutes)
Azimuth
Elevation
Range (km)
Doppler Factor

Next 0 passes for location: London (51.5072 / 0.1276)

No passes found over London.
BEIDOU-3 M20 (C42)